Location: Couloutre
(47.4081°N, 3.2259°E)
Time: 02:59:42
(UTC+00:00)

STARLINK-1058 - Pass Details

Date: 27 February 2020
Orbit: 549 x 550 km, 53.0° (Epoch: 09 April)

Event Time Altitude Azimuth Distance (km) Brightness Sun altitude
Rises 19:19:21 0° 249° (WSW) 2,715 8.2 -19.5°
Reaches altitude 10° 19:21:36 10° 252° (WSW) 1,824 7.2 -19.9°
Maximum altitude 19:25:44 69° 336° (NNW) 593 3.8 -20.6°
Enters shadow 19:26:47 47° 41° (NE) 739 4.0 -20.8°
